• In United Kingdom
  • List of Countries
  • For 7 days
  • Water Temperature
  • Satellite Maps
  • Weather Map
  • Weather Widgets
  • user-avatar
    Login

    Hourly Weather Tibissa

    Today, 24 October, Wednesday

    Time Temperature Precipitation Wind Pressure Humidity
    00:00 +11°C° 0 mm 8 mps 687 mmHg 81%
    01:00 +11°C° 0 mm 7 mps 687 mmHg 82%
    02:00 +11°C° 0 mm 7 mps 687 mmHg 82%
    03:00 +11°C° 0 mm 7 mps 687 mmHg 82%
    04:00 +11°C° 0 mm 7 mps 687 mmHg 83%
    05:00 +11°C° 0 mm 7 mps 687 mmHg 82%
    06:00 +11°C° 0 mm 7 mps 687 mmHg 82%
    07:00 +11°C° 0 mm 7 mps 687 mmHg 82%
    08:00 +12°C° 0 mm 8 mps 687 mmHg 78%
    09:00 +12°C° 0 mm 8 mps 688 mmHg 73%
    10:00 +13°C° 0 mm 8 mps 688 mmHg 69%
    11:00 +15°C° 0 mm 9 mps 688 mmHg 65%
    12:00 +16°C° 0 mm 9 mps 688 mmHg 61%
    13:00 +16°C° 0 mm 9 mps 688 mmHg 57%
    14:00 +16°C° 0 mm 9 mps 687 mmHg 58%
    15:00 +16°C° 0 mm 8 mps 687 mmHg 60%
    16:00 +16°C° 0 mm 8 mps 687 mmHg 61%
    17:00 +15°C° 0 mm 8 mps 687 mmHg 66%
    18:00 +15°C° 0 mm 7 mps 687 mmHg 70%
    19:00 +14°C° 0 mm 7 mps 687 mmHg 75%
    20:00 +13°C° 0 mm 6 mps 687 mmHg 77%
    21:00 +13°C° 0 mm 5 mps 687 mmHg 79%
    22:00 +13°C° 0 mm 4 mps 687 mmHg 82%
    23:00 +12°C° 0 mm 4 mps 687 mmHg 84%

    Tomorrow, 25 October, Thursday

    Time Temperature Precipitation Wind Pressure Humidity
    00:00 +12°C° 0 mm 3 mps 687 mmHg 85%
    01:00 +12°C° 0 mm 3 mps 687 mmHg 87%
    02:00 +12°C° 0 mm 2 mps 687 mmHg 88%
    03:00 +12°C° 0 mm 2 mps 687 mmHg 89%
    04:00 +12°C° 0 mm 2 mps 687 mmHg 89%
    05:00 +12°C° 0 mm 2 mps 687 mmHg 89%
    06:00 +12°C° 0 mm 2 mps 687 mmHg 89%
    07:00 +10°C° 0 mm 2 mps 687 mmHg 89%
    08:00 +13°C° 0 mm 2 mps 688 mmHg 82%
    09:00 +14°C° 0 mm 1 mps 688 mmHg 75%
    10:00 +16°C° 0 mm 1 mps 689 mmHg 67%
    11:00 +18°C° 0 mm 1 mps 689 mmHg 61%
    12:00 +19°C° 0 mm 1 mps 689 mmHg 55%
    13:00 +20°C° 0 mm 1 mps 689 mmHg 49%
    14:00 +20°C° 0 mm 1 mps 689 mmHg 46%
    15:00 +21°C° 0 mm 1 mps 689 mmHg 44%
    16:00 +21°C° 0 mm 1 mps 689 mmHg 41%
    17:00 +20°C° 0 mm 1 mps 688 mmHg 44%
    18:00 +19°C° 0 mm 2 mps 688 mmHg 48%
    19:00 +18°C° 0 mm 2 mps 688 mmHg 52%
    20:00 +17°C° 0 mm 2 mps 688 mmHg 53%
    21:00 +17°C° 0 mm 2 mps 688 mmHg 55%
    22:00 +16°C° 0 mm 2 mps 689 mmHg 56%
    23:00 +16°C° 0 mm 2 mps 688 mmHg 57%

    Day after tomorrow, 26 October, Friday

    Time Temperature Precipitation Wind Pressure Humidity
    00:00 +16°C° 0 mm 2 mps 688 mmHg 59%
    01:00 +15°C° 0 mm 2 mps 688 mmHg 60%
    02:00 +15°C° 0 mm 2 mps 688 mmHg 61%
    03:00 +14°C° 0 mm 2 mps 687 mmHg 62%
    04:00 +14°C° 0 mm 2 mps 687 mmHg 63%
    05:00 +14°C° 0 mm 2 mps 687 mmHg 63%
    06:00 +14°C° 0 mm 2 mps 687 mmHg 64%
    07:00 +13°C° 0 mm 2 mps 687 mmHg 65%
    08:00 +15°C° 0 mm 2 mps 687 mmHg 57%
    09:00 +17°C° 0 mm 3 mps 688 mmHg 50%
    10:00 +18°C° 0 mm 3 mps 688 mmHg 43%
    11:00 +19°C° 0 mm 4 mps 688 mmHg 39%
    12:00 +20°C° 0 mm 4 mps 688 mmHg 35%
    13:00 +21°C° 0 mm 5 mps 688 mmHg 30%
    14:00 +21°C° 0 mm 5 mps 687 mmHg 31%
    15:00 +21°C° 0 mm 6 mps 687 mmHg 33%
    16:00 +21°C° 0 mm 6 mps 686 mmHg 34%
    17:00 +19°C° 0 mm 6 mps 686 mmHg 39%
    18:00 +17°C° 0 mm 5 mps 686 mmHg 44%
    19:00 +17°C° 0 mm 4 mps 686 mmHg 49%
    20:00 +15°C° 0 mm 4 mps 686 mmHg 51%
    21:00 +15°C° 0 mm 4 mps 686 mmHg 54%
    22:00 +14°C° 0 mm 4 mps 686 mmHg 57%
    23:00 +14°C° 0 mm 4 mps 686 mmHg 59%

    27 October, Saturday

    Time Temperature Precipitation Wind Pressure Humidity
    00:00 +13°C° 0 mm 4 mps 686 mmHg 61%
    01:00 +13°C° 0 mm 3 mps 685 mmHg 62%
    02:00 +13°C° 0 mm 3 mps 685 mmHg 63%
    03:00 +13°C° 0 mm 3 mps 684 mmHg 63%
    04:00 +12°C° 0 mm 4 mps 684 mmHg 64%
    05:00 +12°C° 0 mm 4 mps 684 mmHg 63%
    06:00 +12°C° 0 mm 4 mps 684 mmHg 63%
    07:00 +12°C° 0 mm 4 mps 684 mmHg 63%
    08:00 +14°C° 0 mm 5 mps 684 mmHg 57%
    09:00 +16°C° 0 mm 7 mps 685 mmHg 51%
    10:00 +18°C° 0 mm 8 mps 685 mmHg 45%
    11:00 +18°C° 0 mm 9 mps 685 mmHg 45%
    12:00 +19°C° 0 mm 9 mps 684 mmHg 44%
    13:00 +21°C° 0 mm 10 mps 684 mmHg 43%
    14:00 +21°C° 0 mm 9 mps 683 mmHg 44%
    15:00 +19°C° 0 mm 9 mps 683 mmHg 45%
    16:00 +19°C° 0 mm 9 mps 682 mmHg 46%
    17:00 +18°C° 0 mm 8 mps 682 mmHg 50%
    18:00 +17°C° 0 mm 7 mps 681 mmHg 54%
    19:00 +17°C° 0 mm 6 mps 681 mmHg 58%
    20:00 +17°C° 0 mm 7 mps 681 mmHg 57%
    21:00 +17°C° 0 mm 7 mps 681 mmHg 57%
    22:00 +17°C° 0 mm 7 mps 680 mmHg 57%
    23:00 +16°C° 0.1 mm 8 mps 680 mmHg 58%

    28 October, Sunday

    Time Temperature Precipitation Wind Pressure Humidity
    00:00 +16°C° 0.1 mm 8 mps 679 mmHg 59%
    01:00 +16°C° 0.1 mm 8 mps 679 mmHg 61%
    02:00 +16°C° 0.1 mm 9 mps 678 mmHg 64%
    03:00 +15°C° 0.1 mm 9 mps 678 mmHg 66%
    04:00 +15°C° 0.1 mm 9 mps 677 mmHg 69%
    05:00 +13°C° 0.1 mm 9 mps 677 mmHg 70%
    06:00 +13°C° 0.1 mm 8 mps 676 mmHg 71%
    07:00 +13°C° 0.1 mm 8 mps 676 mmHg 73%
    08:00 +13°C° 0.1 mm 9 mps 676 mmHg 71%
    09:00 +14°C° 0.1 mm 10 mps 677 mmHg 70%
    10:00 +14°C° 0.1 mm 11 mps 677 mmHg 69%
    11:00 +14°C° 0.1 mm 10 mps 676 mmHg 69%
    12:00 +14°C° 0.1 mm 10 mps 676 mmHg 70%
    13:00 +14°C° 0.1 mm 10 mps 676 mmHg 71%
    14:00 +14°C° 0.1 mm 10 mps 675 mmHg 66%
    15:00 +16°C° 0.1 mm 11 mps 675 mmHg 61%
    16:00 +17°C° 0.1 mm 11 mps 675 mmHg 56%
    17:00 +14°C° 0 mm 10 mps 675 mmHg 58%
    18:00 +13°C° 0 mm 9 mps 675 mmHg 60%
    19:00 +12°C° 0 mm 7 mps 675 mmHg 61%
    20:00 +12°C° 0.1 mm 7 mps 676 mmHg 61%
    21:00 +13°C° 0.1 mm 6 mps 676 mmHg 61%
    22:00 +11°C° 0.1 mm 6 mps 676 mmHg 61%
    23:00 +11°C° 0.1 mm 6 mps 676 mmHg 57%

    29 October, Monday

    Time Temperature Precipitation Wind Pressure Humidity
    00:00 +10°C° 0.1 mm 6 mps 676 mmHg 54%
    01:00 +10°C° 0.1 mm 6 mps 676 mmHg 50%
    02:00 +9°C° 0.1 mm 6 mps 676 mmHg 50%
    03:00 +9°C° 0.1 mm 5 mps 677 mmHg 49%
    04:00 +8°C° 0.1 mm 5 mps 677 mmHg 49%
    05:00 +8°C° 0.2 mm 5 mps 677 mmHg 49%
    06:00 +8°C° 0.2 mm 5 mps 677 mmHg 48%
    07:00 +8°C° 0.2 mm 5 mps 677 mmHg 48%
    08:00 +7°C° 0.2 mm 5 mps 677 mmHg 47%
    09:00 +7°C° 0.2 mm 5 mps 678 mmHg 45%
    10:00 +7°C° 0.2 mm 5 mps 678 mmHg 44%
    11:00 +8°C° 0.1 mm 6 mps 678 mmHg 40%
    12:00 +8°C° 0.1 mm 7 mps 678 mmHg 36%
    13:00 +9°C° 0.1 mm 8 mps 678 mmHg 32%
    14:00 +9°C° 0 mm 8 mps 678 mmHg 31%
    15:00 +9°C° 0 mm 8 mps 678 mmHg 29%
    16:00 +8°C° 0 mm 9 mps 678 mmHg 27%
    17:00 +7°C° 0 mm 8 mps 678 mmHg 32%
    18:00 +8°C° 0 mm 7 mps 678 mmHg 36%
    19:00 +7°C° 0 mm 6 mps 678 mmHg 41%
    20:00 +5°C° 0 mm 6 mps 679 mmHg 43%
    21:00 +5°C° 0 mm 7 mps 679 mmHg 45%
    22:00 +5°C° 0 mm 7 mps 679 mmHg 48%
    23:00 +4°C° 0 mm 7 mps 679 mmHg 50%

    30 October, Tuesday

    Time Temperature Precipitation Wind Pressure Humidity
    00:00 +4°C° 0 mm 7 mps 679 mmHg 51%
    01:00 +3°C° 0 mm 7 mps 679 mmHg 53%
    02:00 +3°C° 0 mm 7 mps 679 mmHg 56%
    03:00 +3°C° 0 mm 7 mps 679 mmHg 59%
    04:00 +3°C° 0 mm 6 mps 679 mmHg 62%
    05:00 +3°C° 0 mm 6 mps 680 mmHg 64%
    06:00 +3°C° 0 mm 6 mps 680 mmHg 65%
    07:00 +3°C° 0 mm 5 mps 680 mmHg 67%
    08:00 +4°C° 0 mm 6 mps 681 mmHg 61%
    09:00 +7°C° 0 mm 6 mps 682 mmHg 55%
    10:00 +8°C° 0 mm 7 mps 682 mmHg 49%
    11:00 +9°C° 0 mm 6 mps 682 mmHg 45%
    12:00 +10°C° 0 mm 6 mps 682 mmHg 41%
    13:00 +11°C° 0 mm 6 mps 682 mmHg 37%
    14:00 +12°C° 0 mm 5 mps 683 mmHg 37%
    15:00 +12°C° 0 mm 5 mps 683 mmHg 36%
    16:00 +13°C° 0 mm 4 mps 683 mmHg 36%
    17:00 +12°C° 0 mm 3 mps 683 mmHg 41%
    18:00 +12°C° 0 mm 2 mps 683 mmHg 46%
    19:00 +10°C° 0 mm 2 mps 683 mmHg 51%
    20:00 +10°C° 0 mm 2 mps 683 mmHg 53%
    21:00 +9°C° 0 mm 2 mps 683 mmHg 54%
    22:00 +9°C° 0 mm 3 mps 684 mmHg 55%
    23:00 +9°C° 0 mm 3 mps 684 mmHg 56%
    Show more